Regional Weather Roundup
Issued by NWS Charleston, SC

Current Version | Previous Version | Graphics & Text | Print | Product List | Glossary On
Versions: 1 2 3 4 5 6 7 8 9 10 11 12 13 14 15 16 17 18 19 20 21 22 23 24 25 26 27 28 29 30 31 32 33 34 35 36 37 38 39 40 41 42 43 44 45 46 47 48 49 50
000
ASUS42 KCHS 172110
RWRCHS
REGIONAL WEATHER ROUNDUP
NATIONAL WEATHER SERVICE CHARLESTON SC
500 PM EDT THU APR 17 2014

NOTE: "FAIR" INDICATES FEW OR NO CLOUDS BELOW 12,000 FEET WITH NO
SIGNIFICANT WEATHER AND/OR OBSTRUCTIONS TO VISIBILITY.

NOT ALL STATIONS ARE QUALITY CONTROLLED BY THE NATIONAL
WEATHER SERVICE. USE DATA WITH CAUTION...ESPECIALLY
DEWPOINT OBSERVATIONS.

SCZ027-030-031-034>040-042>050-172200-
...SOUTH CAROLINA...

CITY           SKY/WX    TMP DP  RH WIND       PRES   REMARKS
N CHARLESTON   MOSUNNY   70  49  47 E15       30.34F
WATERFRONT PRK   N/A     64 N/A N/A E22         N/A
FORT JOHNSON   NOT AVBL
MOUNT PLEASANT FAIR     N/A N/A N/A E12G18    30.36S
JOHNS ISLAND   CLEAR     64  52  63 E23G29    30.35F
PINOPOLIS        N/A     66  48  52 NE9       30.28F
MONCKS CORNER  FAIR      72  52  49 E6        30.35F
SUMMERVILLE    FAIR      70  48  46 NE5       30.34F
BEAUFORT MCAS  SUNNY     67  53  61 S16       30.32F
BEAUFORT ARPT  FAIR      64  54  68 E13G23    30.32F
HILTON HEAD IS SUNNY     64  52  63 NE17G25   30.34F
GEORGETOWN     NOT AVBL
WALTERBORO     CLEAR     70  48  46 NE7       30.33F
ORANGEBURG     SUNNY     66  40  38 NE7       30.36F
BARNWELL       FAIR      70  41  35 NE13      30.33F
AIKEN          FAIR      66  39  37 NE10G20   30.37F
MANNING        FAIR      70  32  24 E7        30.36F
KINGSTREE      NOT AVBL
COLUMBIA       MOSUNNY   68  32  26 NE10      30.36F
SUMTER         SUNNY     66  39  37 E10       30.36F
FLORENCE       SUNNY     67  42  40 VRB5      30.39F
MYRTLE BEACH   SUNNY     64  46  52 SE12      30.39F
N MYRTLE BEACH SUNNY     64  49  57 SE8       30.39F

$$

GAZ063-065-086>088-099>101-113>116-118-119-134-136>141-150-172200-
...GEORGIA...

CITY           SKY/WX    TMP DP  RH WIND       PRES   REMARKS
SAVANNAH ARPT  PTSUNNY   71  47  42 E9G18     30.30F
HUNTER AAF     MOSUNNY   67  50  53 E15G22    30.29F
FORT STEWART   MOSUNNY   69  53  57 E13       30.29F
STATESBORO     NOT AVBL
SYLVANIA       CLOUDY    70  44  39 E8        30.32F
CLAXTON        MOCLDY    70  54  56 E12G17    30.31S
THOMSON        SUNNY     66  42  41 NE8       30.38S
AUGUSTA-BUSH   MOSUNNY   69  35  28 NE13      30.32F
AUGUSTA-DANIEL MOSUNNY   70  33  25 E13       30.33F
SWAINSBORO     CLOUDY    66  43  42 E10       30.33R
VIDALIA        CLOUDY    68  46  45 E13       30.31R
ALMA           CLOUDY    67  50  54 E8G21     30.29R
WAYCROSS       NOT AVBL
JESUP          CLOUDY    63  52  67 SE10G17   30.31R
BRUNSWICK      CLOUDY    63  55  77 NE15G21   30.32R
SAINT SIMONS   CLOUDY    63  56  78 NE18G29   30.29F

$$

SCZ027-028-034-036>038-045-046-048>050-GAZ119-141-172200-
...LAKE AND SUPPLEMENTAL COASTAL OBSERVATIONS...

STATION/POSITION TIME  TEMP    WIND        PRES    WAVE   SWELL
                       AIR SEA DIR/SP/G            HT/PER HT/PER/DIR
                 (UTC) (F)     (DEG/KT/KT) (MB)    (FT/S) (FT/S/D)
UPR LAKE MARION  NOT AVBL
WINYAH BAY       2000   62      70/ 13     1029.0S
LAKE MURRAY      2000   64      30/  3/  6 1028.1F
ACE BASIN NERRS  2000   70      50/  5     1028.0S
FORT PULASKI     2100   61 60   60/ 21/ 27 1027.2S
SAPELO ISLAND    2000   61      50/ 17     1027.0S

$$

ANZ835-935-AMZ111-154-330-350-352-354-374-450-454-472-172200-
...C-MAN AND BUOY OBSERVATIONS...

STATION/POSITION TIME  TEMP    WIND        PRES    WAVE   SWELL
                       AIR SEA DIR/SP/G            HT/PER HT/PER/DIR
                 (UTC) (F)     (DEG/KT/KT) (MB)    (FT/S) (FT/S/D)
FOLLY BEACH CMAN 2000   60      70/ 21/ 25 1028.9F
BUOY 41004       NOT AVBL
BUOY 41008       2100   62 64   60/ 21/ 27 1025.7F   7/ 7   3/100/ 9
5E ST. MARYS GA  2100      64                N/A     7/ 6   2/ 90/12
FRYING PAN BUOY  2100   60 62   60/ 21/ 25 1028.3F   8/ 8   3/100/10
BUOY 41025       NOT AVBL
CAPE LOOKOUT NC  2000   57      40/ 18/ 22 1030.6F
BUOY 41002       NOT AVBL
BUOY 41010       2100   73 76   60/ 21/ 25 1022.3F   9/12   7/ 30/12
BUOY 41012       NOT AVBL
ST AUGUSTINE FL  2100   65      30/ 16/ 17 1023.8F
CAPERS NEARSHORE 2000           70/ 21/ 25   N/A
FRIPP NEARSHORE  2000   61      70/ 17/ 23   N/A


$$


USA.gov is the U.S. government's official web portal to all federal, state and local government web resources and services.